Year,Month,Day,Hour,Minute,Value (Times are PST for temperature in C)
2012,10,01,00,00,8.00
2012,10,01,00,01,8.00
2012,10,01,00,02,8.00
2012,10,01,00,03,7.90
2012,10,01,00,04,7.90
2012,10,01,00,05,7.90
2012,10,01,00,06,7.90
2012,10,01,00,07,7.90
2012,10,01,00,08,7.90
2012,10,01,00,09,8.00
2012,10,01,00,10,8.00
2012,10,01,00,11,8.00
2012,10,01,00,12,8.00
2012,10,01,00,13,8.00
2012,10,01,00,14,8.00
2012,10,01,00,15,8.00
2012,10,01,00,16,8.00
2012,10,01,00,17,8.00
2012,10,01,00,18,7.90
2012,10,01,00,19,8.00
2012,10,01,00,20,7.90
2012,10,01,00,21,7.90
2012,10,01,00,22,7.90
2012,10,01,00,23,7.90
2012,10,01,00,24,7.90
2012,10,01,00,25,7.90
2012,10,01,00,26,7.90
2012,10,01,00,27,7.90
2012,10,01,00,28,7.90
2012,10,01,00,29,7.90
2012,10,01,00,30,7.80
2012,10,01,00,31,7.80
2012,10,01,00,32,7.80
2012,10,01,00,33,7.80
2012,10,01,00,34,7.80
2012,10,01,00,35,7.80
2012,10,01,00,36,7.80
2012,10,01,00,37,7.80
2012,10,01,00,38,7.80
2012,10,01,00,39,7.80
2012,10,01,00,40,7.90
2012,10,01,00,41,7.90
2012,10,01,00,42,7.90
2012,10,01,00,43,7.80
2012,10,01,00,44,7.80
2012,10,01,00,45,7.80
2012,10,01,00,46,7.80
2012,10,01,00,47,7.70
2012,10,01,00,48,7.70
2012,10,01,00,49,7.80
2012,10,01,00,50,7.80
2012,10,01,00,51,7.80
2012,10,01,00,52,7.80
2012,10,01,00,53,7.80
2012,10,01,00,54,7.80
2012,10,01,00,55,7.80
2012,10,01,00,56,7.80
2012,10,01,00,57,7.70
2012,10,01,00,58,7.70
2012,10,01,00,59,7.70
2012,10,01,01,00,7.70
2012,10,01,01,01,7.60
2012,10,01,01,02,7.60
2012,10,01,01,03,7.60
2012,10,01,01,04,7.50
2012,10,01,01,05,7.50
2012,10,01,01,06,7.50
2012,10,01,01,07,7.60
2012,10,01,01,08,7.60
2012,10,01,01,09,7.60
2012,10,01,01,10,7.70
2012,10,01,01,11,7.70
2012,10,01,01,12,7.70
2012,10,01,01,13,7.70
2012,10,01,01,14,7.70
2012,10,01,01,15,7.70
2012,10,01,01,16,7.70
2012,10,01,01,17,7.70
2012,10,01,01,18,7.70
2012,10,01,01,19,7.70
2012,10,01,01,20,7.70
2012,10,01,01,21,7.70
2012,10,01,01,22,7.70
2012,10,01,01,23,7.70
2012,10,01,01,24,7.70
2012,10,01,01,25,7.70
2012,10,01,01,26,7.70
2012,10,01,01,27,7.70
2012,10,01,01,28,7.60
2012,10,01,01,29,7.60
2012,10,01,01,30,7.60
2012,10,01,01,31,7.60
2012,10,01,01,32,7.60
2012,10,01,01,33,7.60
2012,10,01,01,34,7.60
2012,10,01,01,35,7.50
2012,10,01,01,36,7.50
2012,10,01,01,37,7.40
2012,10,01,01,38,7.40
2012,10,01,01,39,7.40
2012,10,01,01,40,7.40
2012,10,01,01,41,7.30
2012,10,01,01,42,7.30
2012,10,01,01,43,7.30
2012,10,01,01,44,7.30
2012,10,01,01,45,7.30
2012,10,01,01,46,7.30
2012,10,01,01,47,7.30
2012,10,01,01,48,7.30
2012,10,01,01,49,7.30
2012,10,01,01,50,7.30
2012,10,01,01,51,7.30
2012,10,01,01,52,7.40
2012,10,01,01,53,7.40
2012,10,01,01,54,7.40
2012,10,01,01,55,7.40
2012,10,01,01,56,7.40
2012,10,01,01,57,7.40
2012,10,01,01,58,7.40
2012,10,01,01,59,7.40
2012,10,01,02,00,7.40
2012,10,01,02,01,7.40
2012,10,01,02,02,7.40
2012,10,01,02,03,7.40
2012,10,01,02,04,7.40
2012,10,01,02,05,7.40
2012,10,01,02,06,7.40
2012,10,01,02,07,7.40
2012,10,01,02,08,7.40
2012,10,01,02,09,7.40
2012,10,01,02,10,7.40
2012,10,01,02,11,7.40
2012,10,01,02,12,7.40
2012,10,01,02,13,7.40
2012,10,01,02,14,7.40
2012,10,01,02,15,7.40
2012,10,01,02,16,7.40
2012,10,01,02,17,7.40
2012,10,01,02,18,7.40
2012,10,01,02,19,7.40
2012,10,01,02,20,7.40
2012,10,01,02,21,7.30
2012,10,01,02,22,7.30
2012,10,01,02,23,7.30
2012,10,01,02,24,7.30
2012,10,01,02,25,7.30
2012,10,01,02,26,7.30
2012,10,01,02,27,7.20
2012,10,01,02,28,7.20
2012,10,01,02,29,7.20
2012,10,01,02,30,7.20
2012,10,01,02,31,7.20
2012,10,01,02,32,7.20
2012,10,01,02,33,7.20
2012,10,01,02,34,7.20
2012,10,01,02,35,7.10
2012,10,01,02,36,7.10
2012,10,01,02,37,7.10
2012,10,01,02,38,7.10
2012,10,01,02,39,7.10
2012,10,01,02,40,7.00
2012,10,01,02,41,7.00
2012,10,01,02,42,7.00
2012,10,01,02,43,6.90
2012,10,01,02,44,6.90
2012,10,01,02,45,6.90
2012,10,01,02,46,6.90
2012,10,01,02,47,6.90
2012,10,01,02,48,6.90
2012,10,01,02,49,6.90
2012,10,01,02,50,6.90
2012,10,01,02,51,6.90
2012,10,01,02,52,6.90
2012,10,01,02,53,6.90
2012,10,01,02,54,6.90
2012,10,01,02,55,6.90
2012,10,01,02,56,7.00
2012,10,01,02,57,6.90
2012,10,01,02,58,6.90
2012,10,01,02,59,7.00
2012,10,01,03,00,7.00
2012,10,01,03,01,7.00
2012,10,01,03,02,7.00
2012,10,01,03,03,7.00
2012,10,01,03,04,7.00
2012,10,01,03,05,7.00
2012,10,01,03,06,6.90
2012,10,01,03,07,6.90
2012,10,01,03,08,6.90
2012,10,01,03,09,6.90
2012,10,01,03,10,6.90
2012,10,01,03,11,6.80
2012,10,01,03,12,6.80
2012,10,01,03,13,6.80
2012,10,01,03,14,6.80
2012,10,01,03,15,6.70
2012,10,01,03,16,6.70
2012,10,01,03,17,6.70
2012,10,01,03,18,6.70
2012,10,01,03,19,6.70
2012,10,01,03,20,6.70
2012,10,01,03,21,6.70
2012,10,01,03,22,6.70
2012,10,01,03,23,6.70
2012,10,01,03,24,6.80
2012,10,01,03,25,6.80
2012,10,01,03,26,6.80
2012,10,01,03,27,6.80
2012,10,01,03,28,6.80
2012,10,01,03,29,6.90
2012,10,01,03,30,6.90
2012,10,01,03,31,6.90
2012,10,01,03,32,6.90
2012,10,01,03,33,6.90
2012,10,01,03,34,6.90
2012,10,01,03,35,6.90
2012,10,01,03,36,6.90
2012,10,01,03,37,6.90
2012,10,01,03,38,6.90
2012,10,01,03,39,6.90
2012,10,01,03,40,6.80
2012,10,01,03,41,6.80
2012,10,01,03,42,6.80
2012,10,01,03,43,6.80
2012,10,01,03,44,6.80
2012,10,01,03,45,6.80
2012,10,01,03,46,6.80
2012,10,01,03,47,6.70
2012,10,01,03,48,6.70
2012,10,01,03,49,6.70
2012,10,01,03,50,6.70
2012,10,01,03,51,6.70
2012,10,01,03,52,6.70
2012,10,01,03,53,6.60
2012,10,01,03,54,6.60
2012,10,01,03,55,6.60
2012,10,01,03,56,6.60
2012,10,01,03,57,6.60
2012,10,01,03,58,6.60
2012,10,01,03,59,6.60
2012,10,01,04,00,6.60
2012,10,01,04,01,6.60
2012,10,01,04,02,6.60
2012,10,01,04,03,6.60
2012,10,01,04,04,6.60
2012,10,01,04,05,6.60
2012,10,01,04,06,6.50
2012,10,01,04,07,6.50
2012,10,01,04,08,6.50
2012,10,01,04,09,6.40
2012,10,01,04,10,6.40
2012,10,01,04,11,6.40
2012,10,01,04,12,6.40
2012,10,01,04,13,6.30
2012,10,01,04,14,6.30
2012,10,01,04,15,6.30
2012,10,01,04,16,6.30
2012,10,01,04,17,6.30
2012,10,01,04,18,6.20
2012,10,01,04,19,6.20
2012,10,01,04,20,6.20
2012,10,01,04,21,6.20
2012,10,01,04,22,6.20
2012,10,01,04,23,6.20
2012,10,01,04,24,6.20
2012,10,01,04,25,6.20
2012,10,01,04,26,6.20
2012,10,01,04,27,6.20
2012,10,01,04,28,6.20
2012,10,01,04,29,6.20
2012,10,01,04,30,6.20
2012,10,01,04,31,6.20
2012,10,01,04,32,6.20
2012,10,01,04,33,6.20
2012,10,01,04,34,6.20
2012,10,01,04,35,6.20
2012,10,01,04,36,6.30
2012,10,01,04,37,6.30
2012,10,01,04,38,6.30
2012,10,01,04,39,6.30
2012,10,01,04,40,6.30
2012,10,01,04,41,6.30
2012,10,01,04,42,6.30
2012,10,01,04,43,6.30
2012,10,01,04,44,6.30
2012,10,01,04,45,6.30
2012,10,01,04,46,6.30
2012,10,01,04,47,6.30
2012,10,01,04,48,6.30
2012,10,01,04,49,6.30
2012,10,01,04,50,6.30
2012,10,01,04,51,6.30
2012,10,01,04,52,6.30
2012,10,01,04,53,6.30
2012,10,01,04,54,6.30
2012,10,01,04,55,6.30
2012,10,01,04,56,6.30
2012,10,01,04,57,6.30
2012,10,01,04,58,6.30
2012,10,01,04,59,6.30
2012,10,01,05,00,6.30
2012,10,01,05,01,6.30
2012,10,01,05,02,6.20
2012,10,01,05,03,6.20
2012,10,01,05,04,6.20
2012,10,01,05,05,6.20
2012,10,01,05,06,6.20
2012,10,01,05,07,6.20
2012,10,01,05,08,6.20
2012,10,01,05,09,6.20
2012,10,01,05,10,6.20
2012,10,01,05,11,6.30
2012,10,01,05,12,6.30
2012,10,01,05,13,6.30
2012,10,01,05,14,6.30
2012,10,01,05,15,6.30
2012,10,01,05,16,6.30
2012,10,01,05,17,6.30
2012,10,01,05,18,6.30
2012,10,01,05,19,6.30
2012,10,01,05,20,6.30
2012,10,01,05,21,6.30
2012,10,01,05,22,6.30
2012,10,01,05,23,6.30
2012,10,01,05,24,6.30
2012,10,01,05,25,6.30
2012,10,01,05,26,6.30
2012,10,01,05,27,6.30
2012,10,01,05,28,6.30
2012,10,01,05,29,6.30
2012,10,01,05,30,6.30
2012,10,01,05,31,6.20
2012,10,01,05,32,6.20
2012,10,01,05,33,6.20
2012,10,01,05,34,6.20
2012,10,01,05,35,6.20
2012,10,01,05,36,6.20
2012,10,01,05,37,6.20
2012,10,01,05,38,6.20
2012,10,01,05,39,6.20
2012,10,01,05,40,6.20
2012,10,01,05,41,6.20
2012,10,01,05,42,6.20
2012,10,01,05,43,6.20
2012,10,01,05,44,6.20
2012,10,01,05,45,6.20
2012,10,01,05,46,6.20
2012,10,01,05,47,6.20
2012,10,01,05,48,6.20
2012,10,01,05,49,6.20
2012,10,01,05,50,6.30
2012,10,01,05,51,6.30
2012,10,01,05,52,6.30
2012,10,01,05,53,6.30
2012,10,01,05,54,6.30
2012,10,01,05,55,6.30
2012,10,01,05,56,6.30
2012,10,01,05,57,6.30
2012,10,01,05,58,6.30
2012,10,01,05,59,6.30
2012,10,01,06,00,6.30
2012,10,01,06,01,6.30
2012,10,01,06,02,6.30
2012,10,01,06,03,6.30
2012,10,01,06,04,6.30
2012,10,01,06,05,6.30
2012,10,01,06,06,6.30
2012,10,01,06,07,6.30
2012,10,01,06,08,6.30
2012,10,01,06,09,6.30
2012,10,01,06,10,6.30
2012,10,01,06,11,6.30
2012,10,01,06,12,6.30
2012,10,01,06,13,6.30
2012,10,01,06,14,6.30
2012,10,01,06,15,6.30
2012,10,01,06,16,6.30
2012,10,01,06,17,6.30
2012,10,01,06,18,6.30
2012,10,01,06,19,6.30
2012,10,01,06,20,6.30
2012,10,01,06,21,6.30
2012,10,01,06,22,6.30
2012,10,01,06,23,6.30
2012,10,01,06,24,6.30
2012,10,01,06,25,6.20
2012,10,01,06,26,6.20
2012,10,01,06,27,6.20
2012,10,01,06,28,6.20
2012,10,01,06,29,6.20
2012,10,01,06,30,6.20
2012,10,01,06,31,6.30
2012,10,01,06,32,6.30
2012,10,01,06,33,6.40
2012,10,01,06,34,6.40
2012,10,01,06,35,6.40
2012,10,01,06,36,6.40
2012,10,01,06,37,6.40
2012,10,01,06,38,6.40
2012,10,01,06,39,6.40
2012,10,01,06,40,6.40
2012,10,01,06,41,6.40
2012,10,01,06,42,6.40
2012,10,01,06,43,6.40
2012,10,01,06,44,6.40
2012,10,01,06,45,6.40
2012,10,01,06,46,6.50
2012,10,01,06,47,6.50
2012,10,01,06,48,6.50
2012,10,01,06,49,6.50
2012,10,01,06,50,6.40
2012,10,01,06,51,6.40
2012,10,01,06,52,6.40
2012,10,01,06,53,6.40
2012,10,01,06,54,6.40
2012,10,01,06,55,6.40
2012,10,01,06,56,6.40
2012,10,01,06,57,6.30
2012,10,01,06,58,6.30
2012,10,01,06,59,6.30
2012,10,01,07,00,6.30
2012,10,01,07,01,6.40
2012,10,01,07,02,6.40
2012,10,01,07,03,6.40
2012,10,01,07,04,6.40
2012,10,01,07,05,6.40
2012,10,01,07,06,6.40
2012,10,01,07,07,6.40
2012,10,01,07,08,6.40
2012,10,01,07,09,6.40
2012,10,01,07,10,6.40
2012,10,01,07,11,6.40
2012,10,01,07,12,6.40
2012,10,01,07,13,6.40
2012,10,01,07,14,6.40
2012,10,01,07,15,6.40
2012,10,01,07,16,6.40
2012,10,01,07,17,6.40
2012,10,01,07,18,6.40
2012,10,01,07,19,6.40
2012,10,01,07,20,6.40
2012,10,01,07,21,6.40
2012,10,01,07,22,6.40
2012,10,01,07,23,6.40
2012,10,01,07,24,6.40
2012,10,01,07,25,6.40
2012,10,01,07,26,6.40
2012,10,01,07,27,6.40
2012,10,01,07,28,6.30
2012,10,01,07,29,6.30
2012,10,01,07,30,6.30
2012,10,01,07,31,6.30
2012,10,01,07,32,6.30
2012,10,01,07,33,6.30
2012,10,01,07,34,6.30
2012,10,01,07,35,6.30
2012,10,01,07,36,6.30
2012,10,01,07,37,6.30
2012,10,01,07,38,6.30
2012,10,01,07,39,6.30
2012,10,01,07,40,6.30
2012,10,01,07,41,6.30
2012,10,01,07,42,6.30
2012,10,01,07,43,6.30
2012,10,01,07,44,6.30
2012,10,01,07,45,6.30
2012,10,01,07,46,6.30
2012,10,01,07,47,6.40
2012,10,01,07,48,6.40
2012,10,01,07,49,6.40
2012,10,01,07,50,6.40
2012,10,01,07,51,6.50
2012,10,01,07,52,6.50
2012,10,01,07,53,6.50
2012,10,01,07,54,6.50
2012,10,01,07,55,6.50
2012,10,01,07,56,6.60
2012,10,01,07,57,6.60
2012,10,01,07,58,6.60
2012,10,01,07,59,6.60
2012,10,01,08,00,6.60
2012,10,01,08,01,6.70
2012,10,01,08,02,6.70
2012,10,01,08,03,6.70
2012,10,01,08,04,6.70
2012,10,01,08,05,6.70
2012,10,01,08,06,6.80
2012,10,01,08,07,6.80
2012,10,01,08,08,6.80
2012,10,01,08,09,6.80
2012,10,01,08,10,6.80
2012,10,01,08,11,6.90
2012,10,01,08,12,7.00
2012,10,01,08,13,7.10
2012,10,01,08,14,7.10
2012,10,01,08,15,7.20
2012,10,01,08,16,7.20
2012,10,01,08,17,7.30
2012,10,01,08,18,7.30
2012,10,01,08,19,7.30
2012,10,01,08,20,7.30
2012,10,01,08,21,7.40
2012,10,01,08,22,7.40
2012,10,01,08,23,7.50
2012,10,01,08,24,7.50
2012,10,01,08,25,7.60
2012,10,01,08,26,7.60
2012,10,01,08,27,7.60
2012,10,01,08,28,7.70
2012,10,01,08,29,7.70
2012,10,01,08,30,7.70
2012,10,01,08,31,7.80
2012,10,01,08,32,7.80
2012,10,01,08,33,7.80
2012,10,01,08,34,7.90
2012,10,01,08,35,8.00
2012,10,01,08,36,8.00
2012,10,01,08,37,8.10
2012,10,01,08,38,8.20
2012,10,01,08,39,8.20
2012,10,01,08,40,8.30
2012,10,01,08,41,8.40
2012,10,01,08,42,8.40
2012,10,01,08,43,8.50
2012,10,01,08,44,8.60
2012,10,01,08,45,8.70
2012,10,01,08,46,8.80
2012,10,01,08,47,8.90
2012,10,01,08,48,9.00
2012,10,01,08,49,9.20
2012,10,01,08,50,9.30
2012,10,01,08,51,9.40
2012,10,01,08,52,9.40
2012,10,01,08,53,9.50
2012,10,01,08,54,9.60
2012,10,01,08,55,9.70
2012,10,01,08,56,9.70
2012,10,01,08,57,9.80
2012,10,01,08,58,9.90
2012,10,01,08,59,10.00
2012,10,01,09,00,10.10
2012,10,01,09,01,10.20
2012,10,01,09,02,10.30
2012,10,01,09,03,10.30
2012,10,01,09,04,10.50
2012,10,01,09,05,10.50
2012,10,01,09,06,10.60
2012,10,01,09,07,10.70
2012,10,01,09,08,10.70
2012,10,01,09,09,10.80
2012,10,01,09,10,10.90
2012,10,01,09,11,11.00
2012,10,01,09,12,11.10
2012,10,01,09,13,11.20
2012,10,01,09,14,11.30
2012,10,01,09,15,11.30
2012,10,01,09,16,11.40
2012,10,01,09,17,11.40
2012,10,01,09,18,11.50
2012,10,01,09,19,11.50
2012,10,01,09,20,11.60
2012,10,01,09,21,11.60
2012,10,01,09,22,11.70
2012,10,01,09,23,11.70
2012,10,01,09,24,11.80
2012,10,01,09,25,11.80
2012,10,01,09,26,11.90
2012,10,01,09,27,12.00
2012,10,01,09,28,12.10
2012,10,01,09,29,12.20
2012,10,01,09,30,12.30
2012,10,01,09,31,12.40
2012,10,01,09,32,12.40
2012,10,01,09,33,12.50
2012,10,01,09,34,12.60
2012,10,01,09,35,12.60
2012,10,01,09,36,12.60
2012,10,01,09,37,12.60
2012,10,01,09,38,12.60
2012,10,01,09,39,12.60
2012,10,01,09,40,12.60
2012,10,01,09,41,12.60
2012,10,01,09,42,12.60
2012,10,01,09,43,12.50
2012,10,01,09,44,12.50
2012,10,01,09,45,12.50
2012,10,01,09,46,12.50
2012,10,01,09,47,12.50
2012,10,01,09,48,12.40
2012,10,01,09,49,12.40
2012,10,01,09,50,12.50
2012,10,01,09,51,12.50
2012,10,01,09,52,12.60
2012,10,01,09,53,12.60
2012,10,01,09,54,12.70
2012,10,01,09,55,12.80
2012,10,01,09,56,12.90
2012,10,01,09,57,13.00
2012,10,01,09,58,13.00
2012,10,01,09,59,13.10
2012,10,01,10,00,13.20
2012,10,01,10,01,13.20
2012,10,01,10,02,13.20
2012,10,01,10,03,13.30
2012,10,01,10,04,13.30
2012,10,01,10,05,13.40
2012,10,01,10,06,13.50
2012,10,01,10,07,13.50
2012,10,01,10,08,13.60
2012,10,01,10,09,13.60
2012,10,01,10,10,13.70
2012,10,01,10,11,13.80
2012,10,01,10,12,13.80
2012,10,01,10,13,13.80
2012,10,01,10,14,13.90
2012,10,01,10,15,13.90
2012,10,01,10,16,13.90
2012,10,01,10,17,14.00
2012,10,01,10,18,14.00
2012,10,01,10,19,14.00
2012,10,01,10,20,14.10
2012,10,01,10,21,14.10
2012,10,01,10,22,14.10
2012,10,01,10,23,14.20
2012,10,01,10,24,14.20
2012,10,01,10,25,14.20
2012,10,01,10,26,14.20
2012,10,01,10,27,14.20
2012,10,01,10,28,14.20
2012,10,01,10,29,14.20
2012,10,01,10,30,14.20
2012,10,01,10,31,14.20
2012,10,01,10,32,14.20
2012,10,01,10,33,14.20
2012,10,01,10,34,14.30
2012,10,01,10,35,14.30
2012,10,01,10,36,14.40
2012,10,01,10,37,14.50
2012,10,01,10,38,14.70
2012,10,01,10,39,14.90
2012,10,01,10,40,15.10
2012,10,01,10,41,15.30
2012,10,01,10,42,15.50
2012,10,01,10,43,15.70
2012,10,01,10,44,15.90
2012,10,01,10,45,16.20
2012,10,01,10,46,16.30
2012,10,01,10,47,16.50
2012,10,01,10,48,16.60
2012,10,01,10,49,16.80
2012,10,01,10,50,16.90
2012,10,01,10,51,17.10
2012,10,01,10,52,17.10
2012,10,01,10,53,17.20
2012,10,01,10,54,17.30
2012,10,01,10,55,17.40
2012,10,01,10,56,17.40
2012,10,01,10,57,17.40
2012,10,01,10,58,17.50
2012,10,01,10,59,17.60
2012,10,01,11,00,17.60
2012,10,01,11,01,17.60
2012,10,01,11,02,17.70
2012,10,01,11,03,17.70
2012,10,01,11,04,17.70
2012,10,01,11,05,17.70
2012,10,01,11,06,17.70
2012,10,01,11,07,17.80
2012,10,01,11,08,17.80
2012,10,01,11,09,17.80
2012,10,01,11,10,17.80
2012,10,01,11,11,17.90
2012,10,01,11,12,17.90
2012,10,01,11,13,18.00
2012,10,01,11,14,18.00
2012,10,01,11,15,18.10
2012,10,01,11,16,18.10
2012,10,01,11,17,18.10
2012,10,01,11,18,18.10
2012,10,01,11,19,18.10
2012,10,01,11,20,18.00
2012,10,01,11,21,18.10
2012,10,01,11,22,18.00
2012,10,01,11,23,18.00
2012,10,01,11,24,17.90
2012,10,01,11,25,17.90
2012,10,01,11,26,18.00
2012,10,01,11,27,18.00
2012,10,01,11,28,18.00
2012,10,01,11,29,18.00
2012,10,01,11,30,18.00
2012,10,01,11,31,18.00
2012,10,01,11,32,18.10
2012,10,01,11,33,18.20
2012,10,01,11,34,18.20
2012,10,01,11,35,18.20
2012,10,01,11,36,18.20
2012,10,01,11,37,18.20
2012,10,01,11,38,18.20
2012,10,01,11,39,18.20
2012,10,01,11,40,18.20
2012,10,01,11,41,18.20
2012,10,01,11,42,18.20
2012,10,01,11,43,18.10
2012,10,01,11,44,18.10
2012,10,01,11,45,18.10
2012,10,01,11,46,18.10
2012,10,01,11,47,18.10
2012,10,01,11,48,18.10
2012,10,01,11,49,18.10
2012,10,01,11,50,18.10
2012,10,01,11,51,18.10
2012,10,01,11,52,18.00
2012,10,01,11,53,18.00
2012,10,01,11,54,18.00
2012,10,01,11,55,18.10
2012,10,01,11,56,18.10
2012,10,01,11,57,18.20
2012,10,01,11,58,18.20
2012,10,01,11,59,18.20
2012,10,01,12,00,18.20
2012,10,01,12,01,18.20
2012,10,01,12,02,18.20
2012,10,01,12,03,18.20
2012,10,01,12,04,18.20
2012,10,01,12,05,18.30
2012,10,01,12,06,18.30
2012,10,01,12,07,18.20
2012,10,01,12,08,18.30
2012,10,01,12,09,18.30
2012,10,01,12,10,18.30
2012,10,01,12,11,18.30
2012,10,01,12,12,18.40
2012,10,01,12,13,18.40
2012,10,01,12,14,18.50
2012,10,01,12,15,18.50
2012,10,01,12,16,18.50
2012,10,01,12,17,18.50
2012,10,01,12,18,18.40
2012,10,01,12,19,18.40
2012,10,01,12,20,18.40
2012,10,01,12,21,18.40
2012,10,01,12,22,18.50
2012,10,01,12,23,18.50
2012,10,01,12,24,18.60
2012,10,01,12,25,18.60
2012,10,01,12,26,18.70
2012,10,01,12,27,18.70
2012,10,01,12,28,18.70
2012,10,01,12,29,18.70
2012,10,01,12,30,18.70
2012,10,01,12,31,18.70
2012,10,01,12,32,18.70
2012,10,01,12,33,18.80
2012,10,01,12,34,18.80
2012,10,01,12,35,18.80
2012,10,01,12,36,18.90
2012,10,01,12,37,18.80
2012,10,01,12,38,18.80
2012,10,01,12,39,18.80
2012,10,01,12,40,18.80
2012,10,01,12,41,18.80
2012,10,01,12,42,18.90
2012,10,01,12,43,18.90
2012,10,01,12,44,18.90
2012,10,01,12,45,18.90
2012,10,01,12,46,18.90
2012,10,01,12,47,19.00
2012,10,01,12,48,19.00
2012,10,01,12,49,19.10
2012,10,01,12,50,19.10
2012,10,01,12,51,19.20
2012,10,01,12,52,19.20
2012,10,01,12,53,19.10
2012,10,01,12,54,19.10
2012,10,01,12,55,19.20
2012,10,01,12,56,19.20
2012,10,01,12,57,19.20
2012,10,01,12,58,19.30
2012,10,01,12,59,19.30
2012,10,01,13,00,19.40
2012,10,01,13,01,19.40
2012,10,01,13,02,19.50
2012,10,01,13,03,19.50
2012,10,01,13,04,19.50
2012,10,01,13,05,19.50
2012,10,01,13,06,19.50
2012,10,01,13,07,19.50
2012,10,01,13,08,19.50
2012,10,01,13,09,19.60
2012,10,01,13,10,19.70
2012,10,01,13,11,19.70
2012,10,01,13,12,19.80
2012,10,01,13,13,19.80
2012,10,01,13,14,19.90
2012,10,01,13,15,20.10
2012,10,01,13,16,20.20
2012,10,01,13,17,20.20
2012,10,01,13,18,20.30
2012,10,01,13,19,20.30
2012,10,01,13,20,20.30
2012,10,01,13,21,20.30
2012,10,01,13,22,20.30
2012,10,01,13,23,20.30
2012,10,01,13,24,20.20
2012,10,01,13,25,20.20
2012,10,01,13,26,20.30
2012,10,01,13,27,20.40
2012,10,01,13,28,20.40
2012,10,01,13,29,20.40
2012,10,01,13,30,20.40
2012,10,01,13,31,20.40
2012,10,01,13,32,20.40
2012,10,01,13,33,20.40
2012,10,01,13,34,20.40
2012,10,01,13,35,20.40
2012,10,01,13,36,20.50
2012,10,01,13,37,20.60
2012,10,01,13,38,20.70
2012,10,01,13,39,20.80
2012,10,01,13,40,20.80
2012,10,01,13,41,20.80
2012,10,01,13,42,20.70
2012,10,01,13,43,20.70
2012,10,01,13,44,20.70
2012,10,01,13,45,20.80
2012,10,01,13,46,20.70
2012,10,01,13,47,20.80
2012,10,01,13,48,20.80
2012,10,01,13,49,20.70
2012,10,01,13,50,20.70
2012,10,01,13,51,20.70
2012,10,01,13,52,20.70
2012,10,01,13,53,20.70
2012,10,01,13,54,20.70
2012,10,01,13,55,20.70
2012,10,01,13,56,20.70
2012,10,01,13,57,20.80
2012,10,01,13,58,20.80
2012,10,01,13,59,20.80
2012,10,01,14,00,20.70
2012,10,01,14,01,20.70
2012,10,01,14,02,20.70
2012,10,01,14,03,20.70
2012,10,01,14,04,20.50
2012,10,01,14,05,20.40
2012,10,01,14,06,20.30
2012,10,01,14,07,20.20
2012,10,01,14,08,20.10
2012,10,01,14,09,20.10
2012,10,01,14,10,20.00
2012,10,01,14,11,19.90
2012,10,01,14,12,20.00
2012,10,01,14,13,20.10
2012,10,01,14,14,20.20
2012,10,01,14,15,20.20
2012,10,01,14,16,20.10
2012,10,01,14,17,20.00
2012,10,01,14,18,20.00
2012,10,01,14,19,20.10
2012,10,01,14,20,20.10
2012,10,01,14,21,20.10
2012,10,01,14,22,20.00
2012,10,01,14,23,20.10
2012,10,01,14,24,20.10
2012,10,01,14,25,20.10
2012,10,01,14,26,20.10
2012,10,01,14,27,20.00
2012,10,01,14,28,19.90
2012,10,01,14,29,19.90
2012,10,01,14,30,19.80
2012,10,01,14,31,19.70
2012,10,01,14,32,19.70
2012,10,01,14,33,19.70
2012,10,01,14,34,19.60
2012,10,01,14,35,19.60
2012,10,01,14,36,19.60
2012,10,01,14,37,19.70
2012,10,01,14,38,19.70
2012,10,01,14,39,19.70
2012,10,01,14,40,19.80
2012,10,01,14,41,19.90
2012,10,01,14,42,20.00
2012,10,01,14,43,20.10
2012,10,01,14,44,20.10
2012,10,01,14,45,20.20
2012,10,01,14,46,20.20
2012,10,01,14,47,20.00
2012,10,01,14,48,19.90
2012,10,01,14,49,19.80
2012,10,01,14,50,19.70
2012,10,01,14,51,19.60
2012,10,01,14,52,19.50
2012,10,01,14,53,19.50
2012,10,01,14,54,19.50
2012,10,01,14,55,19.60
2012,10,01,14,56,19.50
2012,10,01,14,57,19.50
2012,10,01,14,58,19.40
2012,10,01,14,59,19.30
2012,10,01,15,00,19.30
2012,10,01,15,01,19.20
2012,10,01,15,02,19.10
2012,10,01,15,03,19.00
2012,10,01,15,04,18.80
2012,10,01,15,05,18.70
2012,10,01,15,06,18.60
2012,10,01,15,07,18.50
2012,10,01,15,08,18.40
2012,10,01,15,09,18.40
2012,10,01,15,10,18.30
2012,10,01,15,11,18.30
2012,10,01,15,12,18.20
2012,10,01,15,13,18.10
2012,10,01,15,14,18.20
2012,10,01,15,15,18.20
2012,10,01,15,16,18.30
2012,10,01,15,17,18.40
2012,10,01,15,18,18.40
2012,10,01,15,19,18.40
2012,10,01,15,20,18.50
2012,10,01,15,21,18.50
2012,10,01,15,22,18.50
2012,10,01,15,23,18.50
2012,10,01,15,24,18.50
2012,10,01,15,25,18.50
2012,10,01,15,26,18.50
2012,10,01,15,27,18.50
2012,10,01,15,28,18.50
2012,10,01,15,29,18.40
2012,10,01,15,30,18.40
2012,10,01,15,31,18.30
2012,10,01,15,32,18.30
2012,10,01,15,33,18.30
2012,10,01,15,34,18.30
2012,10,01,15,35,18.30
2012,10,01,15,36,18.30
2012,10,01,15,37,18.30
2012,10,01,15,38,18.30
2012,10,01,15,39,18.20
2012,10,01,15,40,18.20
2012,10,01,15,41,18.20
2012,10,01,15,42,18.20
2012,10,01,15,43,18.10
2012,10,01,15,44,18.10
2012,10,01,15,45,18.20
2012,10,01,15,46,18.20
2012,10,01,15,47,18.20
2012,10,01,15,48,18.20
2012,10,01,15,49,18.20
2012,10,01,15,50,18.10
2012,10,01,15,51,18.10
2012,10,01,15,52,18.00
2012,10,01,15,53,18.00
2012,10,01,15,54,18.00
2012,10,01,15,55,17.90
2012,10,01,15,56,17.90
2012,10,01,15,57,17.90
2012,10,01,15,58,17.80
2012,10,01,15,59,17.70
2012,10,01,16,00,17.70
2012,10,01,16,01,17.60
2012,10,01,16,02,17.50
2012,10,01,16,03,17.40
2012,10,01,16,04,17.30
2012,10,01,16,05,17.30
2012,10,01,16,06,17.20
2012,10,01,16,07,17.20
2012,10,01,16,08,17.10
2012,10,01,16,09,17.10
2012,10,01,16,10,17.00
2012,10,01,16,11,17.00
2012,10,01,16,12,17.00
2012,10,01,16,13,16.90
2012,10,01,16,14,16.80
2012,10,01,16,15,16.80
2012,10,01,16,16,16.70
2012,10,01,16,17,16.70
2012,10,01,16,18,16.60
2012,10,01,16,19,16.50
2012,10,01,16,20,16.50
2012,10,01,16,21,16.40
2012,10,01,16,22,16.40
2012,10,01,16,23,16.40
2012,10,01,16,24,16.40
2012,10,01,16,25,16.40
2012,10,01,16,26,16.50
2012,10,01,16,27,16.50
2012,10,01,16,28,16.50
2012,10,01,16,29,16.50
2012,10,01,16,30,16.40
2012,10,01,16,31,16.40
2012,10,01,16,32,16.40
2012,10,01,16,33,16.40
2012,10,01,16,34,16.40
2012,10,01,16,35,16.40
2012,10,01,16,36,16.40
2012,10,01,16,37,16.30
2012,10,01,16,38,16.30
2012,10,01,16,39,16.30
2012,10,01,16,40,16.30
2012,10,01,16,41,16.30
2012,10,01,16,42,16.30
2012,10,01,16,43,16.30
2012,10,01,16,44,16.30
2012,10,01,16,45,16.30
2012,10,01,16,46,16.30
2012,10,01,16,47,16.30
2012,10,01,16,48,16.20
2012,10,01,16,49,16.20
2012,10,01,16,50,16.20
2012,10,01,16,51,16.20
2012,10,01,16,52,16.20
2012,10,01,16,53,16.20
2012,10,01,16,54,16.10
2012,10,01,16,55,16.00
2012,10,01,16,56,16.00
2012,10,01,16,57,15.90
2012,10,01,16,58,15.90
2012,10,01,16,59,15.80
2012,10,01,17,00,15.80
2012,10,01,17,01,15.80
2012,10,01,17,02,15.70
2012,10,01,17,03,15.70
2012,10,01,17,04,15.70
2012,10,01,17,05,15.70
2012,10,01,17,06,15.60
2012,10,01,17,07,15.60
2012,10,01,17,08,15.60
2012,10,01,17,09,15.60
2012,10,01,17,10,15.60
2012,10,01,17,11,15.60
2012,10,01,17,12,15.60
2012,10,01,17,13,15.60
2012,10,01,17,14,15.60
2012,10,01,17,15,15.60
2012,10,01,17,16,15.60
2012,10,01,17,17,15.60
2012,10,01,17,18,15.60
2012,10,01,17,19,15.60
2012,10,01,17,20,15.50
2012,10,01,17,21,15.50
2012,10,01,17,22,15.40
2012,10,01,17,23,15.40
2012,10,01,17,24,15.40
2012,10,01,17,25,15.40
2012,10,01,17,26,15.40
2012,10,01,17,27,15.40
2012,10,01,17,28,15.50
2012,10,01,17,29,15.50
2012,10,01,17,30,15.60
2012,10,01,17,31,15.60
2012,10,01,17,32,15.50
2012,10,01,17,33,15.50
2012,10,01,17,34,15.50
2012,10,01,17,35,15.50
2012,10,01,17,36,15.40
2012,10,01,17,37,15.40
2012,10,01,17,38,15.40
2012,10,01,17,39,15.40
2012,10,01,17,40,15.40
2012,10,01,17,41,15.30
2012,10,01,17,42,15.30